When you browse on this site, cookies collect data to enhance your experience and personalize the content and advertising you see.
Visit our Privacy Policy to learn more. By continuing to use the site, you agree to this use of cookies and data.
  • în România
  • Lista ţărilor
  • Pe 7 zile
  • Temperatura apei
  • Meteo pe hartă
  • Widget-uri
  • user-avatar
    Intrare

    Meteo pe oră la Mendoza

    Astăzi, 6 Iunie, Sâmbătă

    Timp Temperatura Precipitaţii Vânt Presiune Umiditate
    00:00 +10°C° 0 mm 1 m/s 698 mmHg 38%
    01:00 +9°C° 0 mm 1 m/s 697 mmHg 40%
    02:00 +9°C° 0 mm 1 m/s 697 mmHg 41%
    03:00 +9°C° 0 mm 1 m/s 696 mmHg 43%
    04:00 +8°C° 0 mm 1 m/s 696 mmHg 45%
    05:00 +8°C° 0 mm 1 m/s 696 mmHg 46%
    06:00 +8°C° 0 mm 1 m/s 696 mmHg 47%
    07:00 +8°C° 0 mm 1 m/s 697 mmHg 48%
    08:00 +10°C° 0 mm 1 m/s 697 mmHg 43%
    09:00 +13°C° 0 mm 1 m/s 697 mmHg 38%
    10:00 +15°C° 0 mm 1 m/s 698 mmHg 33%
    11:00 +16°C° 0 mm 1 m/s 697 mmHg 30%
    12:00 +17°C° 0 mm 2 m/s 697 mmHg 27%
    13:00 +18°C° 0 mm 2 m/s 696 mmHg 24%
    14:00 +19°C° 0 mm 1 m/s 696 mmHg 25%
    15:00 +18°C° 0 mm 1 m/s 696 mmHg 26%
    16:00 +18°C° 0 mm 1 m/s 696 mmHg 28%
    17:00 +16°C° 0 mm 1 m/s 696 mmHg 28%
    18:00 +14°C° 0 mm 1 m/s 696 mmHg 29%
    19:00 +13°C° 0 mm 1 m/s 696 mmHg 30%
    20:00 +13°C° 0 mm 1 m/s 696 mmHg 30%
    21:00 +12°C° 0 mm 1 m/s 696 mmHg 30%
    22:00 +12°C° 0 mm 1 m/s 696 mmHg 29%
    23:00 +11°C° 0 mm 1 m/s 696 mmHg 31%

    Mâine, 7 Iunie, Duminică

    Timp Temperatura Precipitaţii Vânt Presiune Umiditate
    00:00 +11°C° 0 mm 1 m/s 696 mmHg 32%
    01:00 +11°C° 0 mm 1 m/s 696 mmHg 33%
    02:00 +9°C° 0 mm 2 m/s 696 mmHg 33%
    03:00 +9°C° 0 mm 2 m/s 696 mmHg 32%
    04:00 +9°C° 0 mm 2 m/s 696 mmHg 32%
    05:00 +9°C° 0 mm 2 m/s 697 mmHg 33%
    06:00 +9°C° 0 mm 2 m/s 697 mmHg 35%
    07:00 +9°C° 0 mm 1 m/s 698 mmHg 36%
    08:00 +10°C° 0 mm 2 m/s 698 mmHg 34%
    09:00 +13°C° 0 mm 2 m/s 698 mmHg 32%
    10:00 +15°C° 0 mm 2 m/s 699 mmHg 30%
    11:00 +16°C° 0 mm 2 m/s 698 mmHg 29%
    12:00 +17°C° 0 mm 2 m/s 698 mmHg 29%
    13:00 +18°C° 0 mm 2 m/s 697 mmHg 28%
    14:00 +17°C° 0 mm 2 m/s 697 mmHg 29%
    15:00 +18°C° 0 mm 1 m/s 698 mmHg 31%
    16:00 +18°C° 0 mm 1 m/s 698 mmHg 33%
    17:00 +15°C° 0 mm 1 m/s 698 mmHg 36%
    18:00 +14°C° 0 mm 1 m/s 698 mmHg 38%
    19:00 +13°C° 0 mm 2 m/s 698 mmHg 41%
    20:00 +13°C° 0 mm 2 m/s 698 mmHg 40%
    21:00 +12°C° 0 mm 2 m/s 698 mmHg 40%
    22:00 +12°C° 0 mm 2 m/s 698 mmHg 40%
    23:00 +10°C° 0 mm 2 m/s 698 mmHg 41%

    Poimâine, 8 Iunie, Luni

    Timp Temperatura Precipitaţii Vânt Presiune Umiditate
    00:00 +10°C° 0 mm 2 m/s 698 mmHg 43%
    01:00 +9°C° 0 mm 2 m/s 698 mmHg 45%
    02:00 +9°C° 0 mm 2 m/s 698 mmHg 46%
    03:00 +9°C° 0 mm 2 m/s 698 mmHg 48%
    04:00 +8°C° 0 mm 2 m/s 698 mmHg 49%
    05:00 +8°C° 0 mm 2 m/s 698 mmHg 49%
    06:00 +8°C° 0 mm 2 m/s 698 mmHg 49%
    07:00 +8°C° 0 mm 2 m/s 698 mmHg 49%
    08:00 +10°C° 0 mm 2 m/s 698 mmHg 43%
    09:00 +14°C° 0 mm 2 m/s 699 mmHg 36%
    10:00 +16°C° 0 mm 2 m/s 699 mmHg 30%
    11:00 +17°C° 0 mm 2 m/s 699 mmHg 28%
    12:00 +19°C° 0 mm 1 m/s 698 mmHg 25%
    13:00 +20°C° 0 mm 1 m/s 698 mmHg 23%
    14:00 +19°C° 0 mm 1 m/s 698 mmHg 24%
    15:00 +19°C° 0 mm 1 m/s 698 mmHg 26%
    16:00 +18°C° 0 mm 1 m/s 698 mmHg 27%
    17:00 +16°C° 0 mm 1 m/s 698 mmHg 29%
    18:00 +15°C° 0 mm 1 m/s 698 mmHg 32%
    19:00 +13°C° 0 mm 1 m/s 699 mmHg 34%
    20:00 +13°C° 0 mm 1 m/s 699 mmHg 36%
    21:00 +12°C° 0 mm 2 m/s 699 mmHg 38%
    22:00 +12°C° 0 mm 2 m/s 699 mmHg 39%
    23:00 +10°C° 0 mm 2 m/s 698 mmHg 40%

    9 Iunie, Marţi

    Timp Temperatura Precipitaţii Vânt Presiune Umiditate
    00:00 +10°C° 0 mm 2 m/s 698 mmHg 41%
    01:00 +9°C° 0 mm 3 m/s 698 mmHg 41%
    02:00 +9°C° 0 mm 3 m/s 698 mmHg 43%
    03:00 +9°C° 0 mm 3 m/s 698 mmHg 44%
    04:00 +8°C° 0 mm 3 m/s 698 mmHg 45%
    05:00 +8°C° 0 mm 3 m/s 698 mmHg 46%
    06:00 +8°C° 0 mm 2 m/s 698 mmHg 47%
    07:00 +8°C° 0 mm 2 m/s 698 mmHg 48%
    08:00 +10°C° 0 mm 2 m/s 698 mmHg 43%
    09:00 +12°C° 0 mm 1 m/s 698 mmHg 38%
    10:00 +14°C° 0 mm 1 m/s 698 mmHg 34%
    11:00 +15°C° 0 mm 1 m/s 698 mmHg 33%
    12:00 +16°C° 0 mm 1 m/s 697 mmHg 32%
    13:00 +16°C° 0 mm 2 m/s 696 mmHg 31%
    14:00 +16°C° 0 mm 1 m/s 696 mmHg 32%
    15:00 +16°C° 0 mm 1 m/s 696 mmHg 32%
    16:00 +16°C° 0 mm 1 m/s 696 mmHg 32%
    17:00 +15°C° 0 mm 1 m/s 697 mmHg 34%
    18:00 +14°C° 0 mm 1 m/s 697 mmHg 36%
    19:00 +13°C° 0 mm 2 m/s 697 mmHg 38%
    20:00 +12°C° 0 mm 2 m/s 697 mmHg 38%
    21:00 +12°C° 0 mm 2 m/s 697 mmHg 37%
    22:00 +10°C° 0 mm 2 m/s 697 mmHg 37%
    23:00 +10°C° 0 mm 2 m/s 697 mmHg 38%

    10 Iunie, Miercuri

    Timp Temperatura Precipitaţii Vânt Presiune Umiditate
    00:00 +9°C° 0 mm 2 m/s 696 mmHg 39%
    01:00 +10°C° 0 mm 1 m/s 696 mmHg 41%
    02:00 +9°C° 0 mm 1 m/s 696 mmHg 42%
    03:00 +9°C° 0 mm 1 m/s 696 mmHg 43%
    04:00 +8°C° 0 mm 1 m/s 696 mmHg 44%
    05:00 +8°C° 0 mm 1 m/s 696 mmHg 45%
    06:00 +8°C° 0 mm 1 m/s 696 mmHg 45%
    07:00 +8°C° 0 mm 1 m/s 696 mmHg 46%
    08:00 +11°C° 0 mm 1 m/s 696 mmHg 41%
    09:00 +13°C° 0 mm 1 m/s 697 mmHg 37%
    10:00 +15°C° 0 mm 1 m/s 697 mmHg 32%
    11:00 +16°C° 0 mm 2 m/s 696 mmHg 31%
    12:00 +17°C° 0 mm 2 m/s 696 mmHg 30%
    13:00 +18°C° 0 mm 2 m/s 696 mmHg 29%
    14:00 +18°C° 0 mm 2 m/s 695 mmHg 31%
    15:00 +17°C° 0 mm 2 m/s 695 mmHg 33%
    16:00 +17°C° 0 mm 2 m/s 695 mmHg 34%
    17:00 +16°C° 0 mm 2 m/s 695 mmHg 37%
    18:00 +15°C° 0 mm 2 m/s 695 mmHg 40%
    19:00 +13°C° 0 mm 2 m/s 695 mmHg 43%
    20:00 +13°C° 0 mm 2 m/s 695 mmHg 43%
    21:00 +12°C° 0 mm 2 m/s 694 mmHg 44%
    22:00 +12°C° 0 mm 2 m/s 694 mmHg 44%
    23:00 +10°C° 0 mm 2 m/s 694 mmHg 50%

    11 Iunie, Joi

    Timp Temperatura Precipitaţii Vânt Presiune Umiditate
    00:00 +10°C° 0 mm 2 m/s 693 mmHg 57%
    01:00 +9°C° 0 mm 2 m/s 693 mmHg 63%
    02:00 +9°C° 0 mm 2 m/s 693 mmHg 64%
    03:00 +9°C° 0 mm 2 m/s 693 mmHg 65%
    04:00 +9°C° 0 mm 2 m/s 692 mmHg 65%
    05:00 +9°C° 0 mm 3 m/s 693 mmHg 66%
    06:00 +9°C° 0 mm 3 m/s 693 mmHg 66%
    07:00 +9°C° 0 mm 3 m/s 693 mmHg 67%
    08:00 +11°C° 0 mm 3 m/s 693 mmHg 63%
    09:00 +13°C° 0 mm 4 m/s 693 mmHg 60%
    10:00 +14°C° 0 mm 4 m/s 694 mmHg 57%
    11:00 +17°C° 0 mm 3 m/s 693 mmHg 46%
    12:00 +18°C° 0 mm 2 m/s 693 mmHg 34%
    13:00 +21°C° 0 mm 1 m/s 693 mmHg 22%
    14:00 +20°C° 0 mm 1 m/s 693 mmHg 24%
    15:00 +19°C° 0 mm 1 m/s 693 mmHg 26%
    16:00 +19°C° 0 mm 1 m/s 693 mmHg 28%
    17:00 +16°C° 0 mm 1 m/s 693 mmHg 31%
    18:00 +15°C° 0 mm 1 m/s 693 mmHg 34%
    19:00 +14°C° 0 mm 1 m/s 694 mmHg 37%
    20:00 +13°C° 0 mm 2 m/s 693 mmHg 38%
    21:00 +13°C° 0 mm 2 m/s 693 mmHg 38%
    22:00 +12°C° 0 mm 2 m/s 693 mmHg 38%
    23:00 +12°C° 0 mm 2 m/s 693 mmHg 40%
    Arată mai mult